loading
DOY 175 | 2024-06-23T18:34:33Z

THOR ABLESTAR DEB, 133

Orbit data source: Space-Track

THOR ABLESTAR DEB, 133 is space debris in LEO originally from a launch on Thu, 29 Jun 1961 UTC launched from the Air Force Eastern Test Range (AFETR). Debris objects in space refer to the collection of defunct objects orbiting the Earth. Examples of debris include non-operational satellites, rocket bodies, and fragments generated from explosions, collisions, or faulty payload assembly.

Loading next visibility...
Loading greatness...
THOR ABLESTAR DEB details
NORAD ID133
COSPAR ID
1961-015T
Orbit
LEO
Last TLE update1 day ago
Origin
Flag of USUSN BuWeps (US)
ManufacturerUnknown
BusUnknown
MotorUnknown
MassWet unknown, Dry mass unknown
Launch date (UTC)
1961-06-29 (63 years ago)
Launch vehicleUnknown
Launch site
Air Force Eastern Test Range (AFETR)
Object type
Payload
Rocket body
Debris
Radar Cross Section0.64 m², Medium (>0.1 m² and < 1m²)
Predictive object data (real-time)
Latitude39.21826°
Longitude-78.84823°
Altitude861.862 km
Speed7.408 km/s
Apparent Right ascension23h 40m 48s
Apparent Declination9° 47' 52"
Sunlit
Object is in daylight
Predictive observer data (real-time)
Local Sidereal Time05:43:45
Azimuth278.011° WNW
Elevation5.707°
Doppler factor1
Orbital elements
Apogee861.041 km
Perigee782.714 km
Semi-major axis7,200.014 km
Eccentricity0.0054393
Inclination67.1153°
RAAN258.8797°
Arg. of periapsis348.4476°
True anomaly11.66229°
Mean anomaly11.5368°
Mean motion3.55257 °/min
BSTAR0.00048904
Period101.33 mins
Definitive object data (Epoch: 2024-06-22T14:53:57.149Z)
Latitude
Longitude124.11006°
Altitude787.297 km
Speed7.48 km/s
True Right ascension17h 15m 31s
True Declination0° 00' 00"
Sunlit
Object was in full shadow at TLE epoch
TLE from 1 day ago
0 THOR ABLESTAR DEB
1 00133U 61015T   24174.62080034  .00000988  00000-0  48904-3 0  9994
2 00133  67.1153 258.8797 0054393 348.4476  11.5368 14.20535198230465
Epoch: 2024-06-22T14:53Z
No data available

THOR ABLESTAR DEB Visibility forecast

Observer location: 39.9160978°, -105.1181434, 0m alt.

THOR ABLESTAR DEB is not visible in the next 10 days
Span
Click to sort rows by Start time (UTC) header in descending order
Start Az.
Max El. time (UTC)
Max El. Az.
Max El.
End time (UTC)
End Az.